BEIDOU-2 IGSO-2

Last updated on Sat Oct 25 2025 00:02:49 GMT+0000 (Coordinated Universal Time)

1 37256U 10068A 25295.62146750 -.00000196 00000+0 00000+0 0 9997 2 37256 47.9774 274.7760 0047363 217.7614 226.5684 1.00248503 54417
UTC large
Height (km)
Speed (km/s)
/
Latitude / Longitude
Inclination (degrees)
Orbital Period (minutes)
Azimuth
Elevation
Range (km)
Doppler Factor

Next 0 passes for location: London (51.5072 / 0.1276)

Sorry there are no passes over London.